Corlu, Turkey

8:20 AM EEST on August 30, 2016 (GMT +0300)
Corlu Air Base

Weather History for LTBU - January, 2013

Change the Weather History Date:

Friday, January 4, 2013

  Actual Average (LTBA) Record (LTBA)
Temperature  
Mean Temperature 40 °F -  
Max Temperature 48 °F 47 °F 57 °F (1997)
Min Temperature 32 °F 39 °F 26 °F (2008)
Degree Days  
Heating Degree Days 25    
Moisture  
Dew Point 36 °F    
Average Humidity 86    
Maximum Humidity 100    
Minimum Humidity 62    
Precipitation  
Precipitation 0.00 in - - ()
Sea Level Pressure  
Sea Level Pressure 30.15 in    
Wind  
Wind Speed 5 mph ()    
Max Wind Speed 14 mph    
Max Gust Speed -    
Visibility 3.7 miles    
Events Fog    
Averages and records for this station are not official NWS values.
T = Trace of Precipitation, MM = Missing Value Source: Averaged Metar Reports

Daily Weather History Graph

Daily Weather History Graph

Search for Another Location

Airport or City:

Trip Planner

Search our weather history database for the weather conditions in past years. The results will help you decide how hot, cold, wet, or windy it might be!

Date:

Astronomy

Jan. 04, 2013 Rise Set
Actual Time 7:33 AM EET 4:53 PM EET
Civil Twilight 7:02 AM EET 5:23 PM EET
Nautical Twilight 6:28 AM EET 5:58 PM EET
Astronomical Twilight 5:55 AM EET 6:31 PM EET
Moon No Moon Rise 11:02 AM EET (1/4)
Length of Visible Light 10h 21m
Length of Day
9h 19m
Waning Gibbous, 58% of the Moon is Illuminated
Jan 4
Waning Gibbous
Jan 5
Last Quarter
Jan 11
New
Jan 19
First Quarter
Jan 27
Full

Hourly Weather History & Observations

Time (EET) Temp. Windchill Dew Point Humidity Pressure Visibility Wind Dir Wind Speed Gust Speed Precip Events Conditions
12:20 AM 33.8 °F - 33.8 °F 100% 30.33 in 0.1 mi WNW 2.3 mph - N/A Fog Fog
1:20 AM 33.8 °F - 33.8 °F 100% 30.33 in 0.7 mi NNW 2.3 mph - N/A Fog Patches of Fog
1:50 AM 33.8 °F 30.8 °F 33.8 °F 100% 30.33 in 2.2 mi North 3.5 mph - N/A Fog Patches of Fog
2:20 AM 33.8 °F 30.8 °F 33.8 °F 100% 30.30 in 2.2 mi North 3.5 mph - N/A Fog Patches of Fog
2:50 AM 35.6 °F 32.8 °F 35.6 °F 100% 30.30 in 2.5 mi NNE 3.5 mph - N/A Fog Patches of Fog
3:20 AM 33.8 °F 30.8 °F 33.8 °F 100% 30.30 in 3.7 mi North 3.5 mph - N/A   Unknown
3:50 AM 33.8 °F 30.8 °F 33.8 °F 100% 30.27 in 3.7 mi NNE 3.5 mph - N/A   Unknown
4:20 AM 33.8 °F 29.6 °F 33.8 °F 100% 30.27 in 3.7 mi East 4.6 mph - N/A   Unknown
4:50 AM 33.8 °F 30.8 °F 33.8 °F 100% 30.24 in 3.7 mi East 3.5 mph - N/A   Unknown
5:20 AM 32.0 °F - 32.0 °F 100% 30.24 in 3.7 mi Calm Calm - N/A   Unknown
5:50 AM 32.0 °F 27.5 °F 32.0 °F 100% 30.24 in 2.8 mi West 4.6 mph - N/A Fog Patches of Fog
6:20 AM 32.0 °F 28.7 °F 32.0 °F 100% 30.24 in 2.8 mi NW 3.5 mph - N/A Fog Patches of Fog
6:50 AM 32.0 °F 27.5 °F 32.0 °F 100% 30.24 in 1.2 mi WNW 4.6 mph - N/A Fog Patches of Fog
7:20 AM 32.0 °F - 32.0 °F 100% 30.21 in 1.1 mi NW 2.3 mph - N/A Fog Patches of Fog
7:50 AM 32.0 °F - 32.0 °F 100% 30.21 in 1.4 mi NNW 2.3 mph - N/A Fog Patches of Fog
8:20 AM 32.0 °F 28.7 °F 32.0 °F 100% 30.21 in 1.2 mi NW 3.5 mph - N/A Fog Patches of Fog
8:50 AM 33.8 °F 29.6 °F 33.8 °F 100% 30.21 in 1.9 mi West 4.6 mph - N/A   Scattered Clouds
9:20 AM 37.4 °F 30.8 °F 35.6 °F 93% 30.21 in 3.1 mi West 9.2 mph - N/A   Mist
9:50 AM 39.2 °F 32.5 °F 35.6 °F 87% 30.21 in 3.1 mi West 10.4 mph - N/A   Mist
10:20 AM 41.0 °F 34.7 °F 35.6 °F 81% 30.18 in 3.7 mi WSW 10.4 mph - N/A   Unknown
10:50 AM 41.0 °F 34.7 °F 33.8 °F 76% 30.18 in 3.7 mi West 10.4 mph - N/A   Unknown
11:20 AM 42.8 °F 38.6 °F 35.6 °F 76% 30.18 in 4.3 mi West 6.9 mph - N/A   Unknown
11:50 AM 44.6 °F 38.4 °F 33.8 °F 66% 30.15 in 4.3 mi West 12.7 mph - N/A   Unknown
12:20 PM 46.4 °F 41.1 °F 35.6 °F 66% 30.15 in 5.0 mi West 11.5 mph - N/A   Unknown
12:50 PM 46.4 °F 40.4 °F 33.8 °F 62% 30.12 in 5.0 mi West 13.8 mph - N/A   Scattered Clouds
1:20 PM 48.2 °F - 35.6 °F 62% 30.12 in 5.0 mi West 13.8 mph - N/A   Scattered Clouds
1:50 PM 46.4 °F 40.7 °F 35.6 °F 66% 30.09 in 5.0 mi West 12.7 mph - N/A   Mostly Cloudy
2:20 PM 48.2 °F - 37.4 °F 66% 30.09 in 5.0 mi West 10.4 mph - N/A   Mostly Cloudy
2:50 PM 46.4 °F 41.5 °F 35.6 °F 66% 30.09 in 5.0 mi West 10.4 mph - N/A   Mostly Cloudy
3:20 PM 46.4 °F 41.9 °F 35.6 °F 66% 30.09 in 5.0 mi WNW 9.2 mph - N/A   Mostly Cloudy
3:50 PM 44.6 °F 38.4 °F 35.6 °F 71% 30.09 in 3.7 mi NW 12.7 mph - N/A   Mostly Cloudy
4:20 PM 44.6 °F 39.7 °F 37.4 °F 76% 30.06 in 3.1 mi NW 9.2 mph - N/A   Mostly Cloudy
4:50 PM 44.6 °F 41.4 °F 37.4 °F 76% 30.06 in 3.1 mi NW 5.8 mph - N/A   Mostly Cloudy
5:20 PM 42.8 °F 39.3 °F 37.4 °F 81% 30.06 in 3.7 mi West 5.8 mph - N/A   Mostly Cloudy
5:50 PM 42.8 °F 40.1 °F 37.4 °F 81% 30.06 in 4.3 mi NW 4.6 mph - N/A   Mostly Cloudy
6:20 PM 42.8 °F 40.1 °F 37.4 °F 81% 30.06 in 5.0 mi West 4.6 mph - N/A   Mostly Cloudy
6:50 PM 42.8 °F 39.3 °F 37.4 °F 81% 30.06 in 5.0 mi West 5.8 mph - N/A   Mostly Cloudy
7:20 PM 42.8 °F 41.1 °F 37.4 °F 81% 30.06 in 5.0 mi WNW 3.5 mph - N/A   Mostly Cloudy
7:50 PM 42.8 °F - 39.2 °F 87% 30.06 in 5.0 mi Variable 1.2 mph - N/A   Mostly Cloudy
8:20 PM 42.8 °F - 39.2 °F 87% 30.06 in 5.0 mi Variable 2.3 mph - N/A   Mostly Cloudy
8:50 PM 44.6 °F 42.2 °F 39.2 °F 81% 30.06 in 5.0 mi West 4.6 mph - N/A   Mostly Cloudy
9:20 PM 42.8 °F 40.1 °F 41.0 °F 93% 30.06 in 6.2 mi West 4.6 mph - N/A   Mostly Cloudy
9:50 PM 42.8 °F 39.3 °F 41.0 °F 93% 30.04 in 6.2 mi WNW 5.8 mph - N/A   Mostly Cloudy
10:20 PM 42.8 °F 39.3 °F 39.2 °F 87% 30.04 in 5.0 mi West 5.8 mph - N/A   Mostly Cloudy
10:50 PM 42.8 °F 41.1 °F 39.2 °F 87% 30.04 in 5.0 mi WNW 3.5 mph - N/A   Mostly Cloudy
11:20 PM 42.8 °F 38.0 °F 39.2 °F 87% 30.04 in 5.0 mi WNW 8.1 mph - N/A   Mostly Cloudy
11:50 PM 42.8 °F 38.0 °F 39.2 °F 87% 30.04 in 5.0 mi NW 8.1 mph - N/A   Mostly Cloudy